Home   Weather   Melk   Past weeks

Flag for Austria Past Weather in Melk, Lower Austria, Austria — Yesterday and Last 2 Weeks

Now
39 °F

Chilly.


Feels Like: 39 °F
Forecast: 37 / 54 °F
Wind: 2 mph from West

Location: Amstetten

Current Time: Apr 28, 2017 at 12:44:48 pm

Latest Report: Apr 28, 2017 at 11:00 am


Visibility: N/A

Pressure: 29.84 "Hg

Humidity: 95%

Dew Point: 37 °F

Location of MelkLocation

Past Weather in Melk — Graph

°F

Melk Temperature Yesterday

Maximum temperature yesterday: 44 °F (at 2:00 pm)
Minimum temperature yesterday: 41 °F (at 7:00 am)
Average temperature yesterday: 42 °F

High & Low Weather Summary for the Past Weeks

 TemperatureHumidityPressure
High68 °F (Apr 25, 4:00 pm)100% (Apr 25, 3:00 am)30.55 "Hg (Apr 25, 3:00 am)
Low30 °F (Apr 24, 6:00 am)43% (Apr 24, 3:00 pm)29.66 "Hg (Apr 25, 5:00 pm)
Average45 °F78%30.07 "Hg
* Reported Apr 13 11:00 am — Apr 28 11:00 am, Melk, Weather by CustomWeather, © 2017

Note: Actual official high and low records may vary slightly from our data, if they occured in-between our weather recording intervals... More about our weather records

Advertising

Melk Weather History for the Previous 24 Hours

Scroll right to see more
 ConditionsComfort  
Time TempWeatherWind HumidityBarometerVisibility
11:00 am
Fri, Apr 28
39 °FChilly.2 mph95%29.84 "HgN/A
10:00 am38 °FChilly.2 mph94%29.84 "HgN/A
9:00 am38 °FChilly.2 mph97%29.85 "HgN/A
8:00 am37 °FOvercast.1 mph98%29.85 "HgN/A
7:00 am36 °FFog.2 mph99%29.84 "HgN/A
6:00 am36 °FFog.2 mph98%29.84 "HgN/A
5:00 am37 °FChilly.2 mph98%29.84 "HgN/A
4:00 am39 °FFog.1 mph98%29.87 "HgN/A
3:00 am40 °FFog.2 mph99%29.85 "HgN/A
2:00 am40 °FQuite cool.1 mph100%29.86 "HgN/A
1:00 am41 °FFog.1 mph100%29.88 "HgN/A
12:00 am41 °FFog.1 mph99%29.91 "HgN/A
11:00 pm
Thu, Apr 27
42 °FQuite cool.1 mph100%29.92 "HgN/A
10:00 pm42 °FFog.1 mph99%29.95 "HgN/A
9:00 pm42 °FQuite cool.1 mph97%29.95 "HgN/A
8:00 pm42 °FQuite cool.No wind97%29.95 "HgN/A
7:00 pm43 °FSprinkles. Cloudy.1 mph96%29.94 "HgN/A
6:00 pm43 °FFog.No wind94%29.96 "HgN/A
5:00 pm43 °FQuite cool.1 mph97%29.97 "HgN/A
4:00 pm43 °FSprinkles. Cloudy.1 mph93%29.96 "HgN/A
3:00 pm44 °FQuite cool.2 mph87%29.96 "HgN/A
2:00 pm44 °FQuite cool.2 mph86%29.96 "HgN/A
1:00 pm43 °FSprinkles. Cloudy.1 mph90%29.96 "HgN/A
12:00 pm43 °FFog.2 mph88%29.96 "HgN/A
Weather by CustomWeather, © 2017

See weather overviewHow to use our weather pages